Location: ??????
(30.5519°N, 47.7720°E)
Time: 08:51:12
(UTC+00:00)

PSLV R/B - Pass Details

Date: 16 May 2021
Orbit: 567 x 598 km, 98.2° (Epoch: 21 June)

Event Time Altitude Azimuth Distance (km) Brightness Sun altitude
Rises 16:08:25 0° 1° (N) 2,843 7.8 -6.9°
Reaches altitude 10° 16:10:42 10° 353° (N) 1,936 7.1 -7.4°
Maximum altitude 16:14:33 36° 287° (WNW) 955 5.9 -8.1°
Drops below altitude 10° 16:18:22 10° 220° (SW) 1,917 6.7 -8.8°
Sets 16:20:38 0° 212° (SSW) 2,810 7.5 -9.2°
